Weather Roundup
Issued by NWS

Home | Current Version | Previous Version | Graphics & Text | Print | Product List | Glossary Off
Versions: 1 2 3 4 5 6 7 8 9 10 11 12 13 14 15 16 17 18 19 20 21 22 23 24 25 26 27 28 29 30 31 32 33 34 35 36 37 38 39 40 41 42 43 44 45 46 47 48 49 50

072
NZUS93 KARX 060859
HRRWXR

CURRENT HOURLY OBSERVATIONS ACROSS
MUCH OF THE UPPER MISSISSIPPI VALLEY
NATIONAL WEATHER SERVICE LA CROSSE WI
300 AM CST SAT FEB 06 2016


...SOUTHEAST MINNESOTA...


CITY           SKY/WX    TMP DP  RH WIND       PRES   REMARKS
ROCHESTER      CLOUDY    25  23  92 SW14      30.15S FOG     WCI  13
ROCHESTER/MAYO CLOUDY    27  27 100 SW6       30.16S WCI  20
WINONA         CLOUDY    30  27  86 W5        30.20S WCI  25
AUSTIN         CLOUDY    27  25  93 SW7       30.17S FOG     WCI  19
ALBERT LEA     CLOUDY    27  27 100 W7        30.17S FOG     WCI  19
DODGE CENTER   CLOUDY    25  25 100 W10       30.15S FOG     WCI  15
PRESTON        CLOUDY    24  23  95 SW7       30.17S FOG     WCI  16
OWATONNA       CLOUDY    27  23  86 W12       30.16S WCI  16
FARIBAULT        N/A     27  23  86 W10       30.17S WCI  17
$$

...ELSEWHERE IN MINNESOTA...


CITY           SKY/WX    TMP DP  RH WIND       PRES   REMARKS
MINNEAPOLIS    CLOUDY    25  21  85 W12       30.16S WCI  14
INTNL FALLS    CLOUDY    19  15  84 SW5       29.99F WCI  12
DULUTH         CLOUDY    18  13  80 W8        30.03F WCI   8
RED WING       CLOUDY    27  23  86 W3        30.16S FOG
REDWOOD FALLS  CLOUDY    15  13  91 SW7       30.15S WCI   5
MANKATO        CLOUDY    27  21  80 W5        30.17S WCI  21
WORTHINGTON    CLOUDY    27  23  86 W14       30.16F VSB 1/2 WCI  15
FAIRMONT       CLOUDY    27  21  80 SW10      30.17S WCI  17
$$

...SOUTHWEST WISCONSIN...


CITY           SKY/WX    TMP DP  RH WIND       PRES   REMARKS
LA CROSSE      CLOUDY    26  21  81 S6        30.20S WCI  19
PRAIRIE DU CHI CLOUDY    28  20  70 S3        30.23F
BOSCOBEL       CLOUDY    28  21  75 SW5       30.23F WCI  23
LONE ROCK      CLOUDY    27  19  72 CALM      30.23F
PLATTEVILLE    CLOUDY    27  24  89 SW7       30.22F WCI  19
FORT MC COY    CLOUDY    26  23  86 SW3       30.20S
VIROQUA        CLOUDY    25  22  87 SW13      30.17F WCI  13
WIS DELLS      CLOUDY    26  19  74 SW10      30.19F WCI  16
$$

...ELSEWHERE IN WISCONSIN...


CITY           SKY/WX    TMP DP  RH WIND       PRES   REMARKS
MILWAUKEE      CLOUDY    29  20  69 SW7       30.24F WCI  22
MADISON        CLOUDY    27  19  72 VRB5      30.22F WCI  22
GREEN BAY      CLOUDY    25  18  74 SW10      30.18F WCI  15
EAU CLAIRE     NOT AVBL
BLACK RVR FLS  CLOUDY    25  21  83 SW7       30.18S WCI  18
MEDFORD        CLOUDY    21  20  96 SW8       30.11S FOG     WCI  11
WAUSAU         CLOUDY    23  18  81 SW10      30.11F WCI  12
WIS RAPIDS     FLURRIES  24  18  77 SW8       30.17F WCI  15
MARSHFIELD     CLOUDY    23  18  81 W12       30.13S WCI  12
RICE LAKE      CLOUDY    24  22  93 SW5       30.14S FOG     WCI  18
$$

...NORTHEAST IOWA...


CITY           SKY/WX    TMP DP  RH WIND       PRES   REMARKS
WATERLOO       CLOUDY    28  25  88 SW10      30.22F WCI  19
DUBUQUE        MOCLDY    24  20  84 SW5       30.23S WCI  18
DECORAH        CLOUDY    27  25  93 SW6G15    30.18F WCI  20
MASON CITY     CLOUDY    27  26  96 W8        30.20S FOG     WCI  19
CHARLES CITY   CLOUDY    27  27 100 SW9       30.20F FOG     WCI  17
OELWEIN        CLOUDY    27  25  93 SW12      30.22F WCI  16
$$

...ELSEWHERE IN IOWA...


CITY           SKY/WX    TMP DP  RH WIND       PRES   REMARKS
DES MOINES     CLOUDY    30  25  81 SW6       30.24S WCI  24
IOWA CITY      CLOUDY    27  22  81 S3        30.27F
FORT DODGE     CLOUDY    28  25  86 W7        30.22F WCI  21
MARSHALLTOWN   CLOUDY    29  26  89 SW7       30.22F WCI  22
CEDAR RAPIDS   CLOUDY    28  24  85 SW7       30.23F WCI  21
$$

...NORTHERN ILLINOIS...


CITY           SKY/WX    TMP DP  RH WIND       PRES   REMARKS
CHICAGO-OHARE  MOCLDY    26  21  81 SW6       30.27F WCI  19
CHICAGO-MIDWAY CLOUDY    28  21  75 SW7       30.29F WCI  21
MOLINE         PTCLDY    28  21  75 S3        30.27F
ROCKFORD       CLOUDY    28  22  78 SW7       30.28F WCI  21
PEORIA         CLOUDY    27  22  81 S3        30.31S
$$

NOTE: "FAIR" INDICATES FEW OR NO CLOUDS BELOW 12,000 FEET WITH NO
SIGNIFICANT WEATHER AND/OR OBSTRUCTIONS TO VISIBILITY. WIND
SPEEDS ARE IN MILES-PER-HOUR.




USA.gov is the U.S. government's official web portal to all federal, state and local government web resources and services.